Weather Roundup
Issued by NWS

Home | Current Version | Previous Version | Graphics & Text | Print | Product List | Glossary Off
Versions: 1 2 3 4 5 6 7 8 9 10 11 12 13 14 15 16 17 18 19 20 21 22 23 24 25 26 27 28 29 30 31 32 33 34 35 36 37 38 39 40 41 42 43 44 45 46 47 48 49 50

000
NZUS93 KARX 311410
HRRWXR

CURRENT HOURLY OBSERVATIONS ACROSS
MUCH OF THE UPPER MISSISSIPPI VALLEY
NATIONAL WEATHER SERVICE LA CROSSE WI
900 AM CDT FRI JUL 31 2015


...SOUTHEAST MINNESOTA...


CITY           SKY/WX    TMP DP  RH WIND       PRES   REMARKS
ROCHESTER      SUNNY     69  60  73 NW9       30.11S
ROCHESTER/MAYO FAIR      69  56  62 W14G20    30.10R
WINONA         SUNNY     73  59  60 W7        30.06R
AUSTIN         SUNNY     72  57  60 W10       30.11S
ALBERT LEA     SUNNY     70  61  73 W5        30.12S
DODGE CENTER   SUNNY     70  57  64 W8        30.11S
PRESTON        SUNNY     69  57  65 NW12      30.10S
OWATONNA       SUNNY     70  61  73 W6        30.11S
FARIBAULT      SUNNY     70  57  64 W8        30.11S
$$

...ELSEWHERE IN MINNESOTA...


CITY           SKY/WX    TMP DP  RH WIND       PRES   REMARKS
MINNEAPOLIS    SUNNY     73  53  49 NW14      30.08R
INTNL FALLS    SUNNY     64  57  78 W9        29.96R
DULUTH         SUNNY     67  52  58 NW15G23   29.98R
RED WING       SUNNY     72  57  60 W12       30.06S
REDWOOD FALLS  SUNNY     70  57  63 W7        30.13S
MANKATO        SUNNY     70  55  60 NW8       30.12S
WORTHINGTON    MOSUNNY   70  57  64 NW3       30.18R
FAIRMONT       MOSUNNY   70  55  60 NW6       30.14S
$$

...SOUTHWEST WISCONSIN...


CITY           SKY/WX    TMP DP  RH WIND       PRES   REMARKS
LA CROSSE      SUNNY     75  57  53 W12       30.04R
PRAIRIE DU CHI SUNNY     75  57  52 NW8       30.06S
BOSCOBEL       SUNNY     76  63  64 W6        30.05S
LONE ROCK      SUNNY     73  62  68 W9        30.04S
PLATTEVILLE    SUNNY     74  66  77 W7        30.07S
FORT MC COY    SUNNY     73  56  55 W9        30.04R
CAMP DOUGLAS   SUNNY     72  63  73 NW15      30.02R
VIROQUA        FAIR      71  59  66 W8        30.07R
WIS DELLS      SUNNY     74  56  52 W9        30.02S
$$

...ELSEWHERE IN WISCONSIN...


CITY           SKY/WX    TMP DP  RH WIND       PRES   REMARKS
MILWAUKEE      MOSUNNY   78  58  49 W9        29.98F
MADISON        SUNNY     75  61  61 W10       30.01S
GREEN BAY      SUNNY     73  61  65 W15G21    29.92F
EAU CLAIRE     SUNNY     71  55  56 NW9       30.03R
BLACK RVR FLS  FAIR      73  56  56 W7        30.03R
MEDFORD        SUNNY     67  56  67 NW14      30.00S
WAUSAU         SUNNY     70  56  61 NW14      29.96S
WIS RAPIDS     SUNNY     72  56  57 NW14      30.00S
MARSHFIELD     SUNNY     71  54  54 NW16G23   30.01R
RICE LAKE      SUNNY     67  55  65 W12       30.04S
$$

...NORTHEAST IOWA...


CITY           SKY/WX    TMP DP  RH WIND       PRES   REMARKS
DECORAH        SUNNY     72  59  64 NW7       30.09R
MASON CITY     SUNNY     72  63  73 NW8       30.14S
CHARLES CITY   SUNNY     70  64  83 NW8       30.12S
OELWEIN        SUNNY     72  66  83 W7        30.12R
$$

...ELSEWHERE IN IOWA...


CITY           SKY/WX    TMP DP  RH WIND       PRES   REMARKS
DES MOINES     MOSUNNY   77  65  66 W6        30.13F
IOWA CITY      SUNNY     76  66  71 NW8       30.11
FORT DODGE     SUNNY     73  64  73 CALM      30.15S
$$

...NORTHERN ILLINOIS...


CITY           SKY/WX    TMP DP  RH WIND       PRES   REMARKS
CHICAGO-OHARE  PTSUNNY   75  63  66 W12       30.01F
CHICAGO-MIDWAY MOSUNNY   76  62  62 SW10      30.01F
MOLINE         SUNNY     78  65  63 NW13      30.08S
ROCKFORD       MOSUNNY   77  64  64 NW9       30.05S
PEORIA         SUNNY     80  66  62 W7        30.09F
$$

NOTE: "FAIR" INDICATES FEW OR NO CLOUDS BELOW 12,000 FEET WITH NO
SIGNIFICANT WEATHER AND/OR OBSTRUCTIONS TO VISIBILITY. WIND
SPEEDS ARE IN MILES-PER-HOUR.



USA.gov is the U.S. government's official web portal to all federal, state and local government web resources and services.